Volver al catálogo

EXPRESS AMU-7

ActivoComunicacionesGEO
NORAD 50001·PAYLOAD·🇷🇺 Russia

Lanzado Dec 13, 2021 desde Baikonur Cosmodrome

Loading…

TLE

ActualizadoSource: Space-Track

Época: Sep 14, 2026, 11:38 UTC

1 50001U 21123A   26257.48517015 -.00000251  00000-0  00000-0 0  9997
2 50001   0.0293 256.3843 0000046 113.7253 303.0266  1.00271838 17430

Sigue EXPRESS AMU-7 en tiempo real con AllMySat

Download on the App Store